DW8565 Weather Reports


Display with metric or nautical units.
time (UTC)temp
F
wind
direction
speed
MPH
gust
MPH
rain 1hr
in
rain 24hr
in
rain mn
in
humidity
%
barometer
mb
20260504033009 54 229 9.0 15.0 0.00 0.00 0.00 51 1013.7
20260504032509 55 235 9.0 15.0 0.00 0.00 0.00 49 1013.7
20260504032008 55 206 9.0 16.0 0.00 0.00 0.00 48 1013.6
20260504031510 55 231 7.0 16.0 0.00 0.00 0.00 47 1013.7
20260504031010 55 183 6.0 11.0 0.00 0.00 0.00 50 1013.8
20260504030509 55 228 5.0 11.0 0.00 0.00 0.00 50 1013.6
20260504030004 55 247 6.0 13.0 0.00 0.00 0.00 50 1013.6
20260504025459 55 232 6.0 14.0 0.00 0.00 0.00 51 1013.7
20260504024952 55 233 6.0 15.0 0.00 0.00 0.00 51 1013.7
20260504024448 55 0 7.0 15.0 0.00 0.00 0.00 50 1013.7
20260504023948 55 221 6.0 13.0 0.00 0.00 0.00 49 1013.7
20260504023457 55 234 5.0 11.0 0.00 0.00 0.00 50 1013.7
20260504023447 55 238 5.0 11.0 0.00 0.00 0.00 49 1013.7
20260504022447 55 240 6.0 12.0 0.00 0.00 0.00 50 1013.6
20260504021947 55 229 5.0 12.0 0.00 0.00 0.00 48 1013.7
20260504021447 55 232 5.0 11.0 0.00 0.00 0.00 50 1013.7
20260504020948 55 216 4.0 9.0 0.00 0.00 0.00 51 1013.6
20260504020447 56 229 5.0 12.0 0.00 0.00 0.00 51 1013.6
20260504015949 56 225 6.0 12.0 0.00 0.00 0.00 49 1013.6
20260504015455 56 236 6.0 12.0 0.00 0.00 0.00 48 1013.5
20260504015448 56 226 6.0 12.0 0.00 0.00 0.00 48 1013.6
20260504014447 56 213 5.0 10.0 0.00 0.00 0.00 50 1013.5
20260504014220 56 234 5.0 10.0 0.00 0.00 0.00 51 1013.5
20260504013447 56 215 5.0 10.0 0.00 0.00 0.00 48 1013.5
20260504012948 56 188 6.0 10.0 0.00 0.00 0.00 50 1013.5
20260504012439 56 248 6.0 10.0 0.00 0.00 0.00 48 1013.4
20260504012209 56 247 6.0 12.0 0.00 0.00 0.00 47 1013.3
20260504011439 56 225 5.0 12.0 0.00 0.00 0.00 49 1013.2
20260504010945 56 233 4.0 10.0 0.00 0.00 0.00 49 1013.0
20260504010937 56 228 4.0 9.0 0.00 0.00 0.00 50 1013.1
20260504005938 56 229 6.0 13.0 0.00 0.00 0.00 45 1012.9
20260504005437 56 226 6.0 13.0 0.00 0.00 0.00 43 1012.9
20260504004937 57 228 5.0 10.0 0.00 0.00 0.00 44 1012.9
20260504004437 57 234 5.0 10.0 0.00 0.00 0.00 44 1012.8
20260504004210 57 239 4.0 10.0 0.00 0.00 0.00 44 1012.8
20260504003436 57 245 4.0 11.0 0.00 0.00 0.00 43 1012.8
20260504003207 57 229 5.0 11.0 0.00 0.00 0.00 41 1012.7
20260504002436 57 226 5.0 10.0 0.00 0.00 0.00 40 1012.6
20260504001937 57 229 5.0 11.0 0.00 0.00 0.00 41 1012.6
20260504001708 57 243 6.0 12.0 0.00 0.00 0.00 41 1012.6
20260504000931 57 231 6.0 12.0 0.00 0.00 0.00 41 1012.6
20260504000424 57 241 6.0 11.0 0.00 0.00 0.00 42 1012.5
20260503235918 57 224 5.0 11.0 0.00 0.00 0.00 43 1012.4
20260503235413 58 215 5.0 10.0 0.00 0.00 0.00 42 1012.3
20260503234905 58 224 5.0 10.0 0.00 0.00 0.00 42 1012.3
20260503234400 58 220 5.0 12.0 0.00 0.00 0.00 42 1012.2
20260503233853 58 236 6.0 12.0 0.00 0.00 0.00 39 1012.2
20260503233618 58 200 6.0 11.0 0.00 0.00 0.00 37 1012.1
20260503232842 59 225 5.0 10.0 0.00 0.00 0.00 37 1012.0
20260503232335 59 239 5.0 10.0 0.00 0.00 0.00 36 1012.0
20260503231830 59 279 5.0 10.0 0.00 0.00 0.00 35 1012.0
20260503231323 59 286 6.0 12.0 0.00 0.00 0.00 34 1012.0
20260503230817 60 234 7.0 14.0 0.00 0.00 0.00 36 1012.0
20260503230542 60 255 7.0 15.0 0.00 0.00 0.00 33 1012.0
20260503225805 60 259 8.0 17.0 0.00 0.00 0.00 32 1012.0
20260503225300 60 275 8.0 17.0 0.00 0.00 0.00 33 1012.0
20260503224753 60 218 8.0 17.0 0.00 0.00 0.00 33 1012.0
20260503224247 60 265 8.0 17.0 0.00 0.00 0.00 31 1012.0
20260503223741 60 277 6.0 14.0 0.00 0.00 0.00 31 1011.9
20260503223236 60 278 7.0 13.0 0.00 0.00 0.00 31 1011.9
20260503222729 61 292 6.0 14.0 0.00 0.00 0.00 31 1011.8
20260503222225 60 257 7.0 14.0 0.00 0.00 0.00 30 1011.7
20260503221949 60 278 8.0 22.0 0.00 0.00 0.00 31 1011.8
20260503221211 60 229 10.0 22.0 0.00 0.00 0.00 30 1011.7
20260503220706 60 266 11.0 20.0 0.00 0.00 0.00 31 1011.7
20260503220200 60 236 10.0 19.0 0.00 0.00 0.00 30 1011.6
20260503215926 60 289 8.0 17.0 0.00 0.00 0.00 30 1011.7
20260503215147 61 281 8.0 19.0 0.00 0.00 0.00 30 1011.5
20260503214641 61 307 7.0 19.0 0.00 0.00 0.00 30 1011.6
20260503214136 61 292 8.0 17.0 0.00 0.00 0.00 29 1011.5
20260503213901 60 299 10.0 19.0 0.00 0.00 0.00 29 1011.4
20260503213124 61 274 8.0 19.0 0.00 0.00 0.00 29 1011.5
20260503212617 61 306 8.0 18.0 0.00 0.00 0.00 29 1011.3
20260503212341 61 294 10.0 20.0 0.00 0.00 0.00 31 1011.4
20260503211605 60 250 10.0 20.0 0.00 0.00 0.00 31 1011.4
20260503211100 61 254 8.0 19.0 0.00 0.00 0.00 29 1011.4
20260503210826 61 278 9.0 21.0 0.00 0.00 0.00 30 1011.4
20260503210047 60 271 9.0 21.0 0.00 0.00 0.00 30 1011.4
20260503205813 60 263 10.0 24.0 0.00 0.00 0.00 31 1011.4
20260503205037 60 284 9.0 21.0 0.00 0.00 0.00 29 1011.4
20260503204529 60 227 9.0 20.0 0.00 0.00 0.00 31 1011.4
20260503204024 60 260 10.0 24.0 0.00 0.00 0.00 30 1011.3
20260503203517 60 305 9.0 24.0 0.00 0.00 0.00 31 1011.4
20260503203012 61 243 7.0 18.0 0.00 0.00 0.00 30 1011.3
20260503202504 60 303 7.0 14.0 0.00 0.00 0.00 32 1011.2
20260503201959 60 35 7.0 14.0 0.00 0.00 0.00 31 1011.3
20260503201453 60 275 7.0 16.0 0.00 0.00 0.00 30 1011.3
20260503200947 59 242 10.0 21.0 0.00 0.00 0.00 30 1011.4
20260503200444 59 254 11.0 21.0 0.00 0.00 0.00 30 1011.4
20260503200439 59 284 9.0 18.0 0.00 0.00 0.00 31 1011.4
20260503195429 60 245 8.0 20.0 0.00 0.00 0.00 31 1011.4
20260503194922 59 275 9.0 20.0 0.00 0.00 0.00 34 1011.5
20260503194416 59 280 9.0 18.0 0.00 0.00 0.00 33 1011.7
20260503193912 59 265 9.0 16.0 0.00 0.00 0.00 32 1011.6
20260503193409 59 256 9.0 22.0 0.00 0.00 0.00 33 1011.7
20260503192915 59 281 7.0 17.0 0.00 0.00 0.00 33 1011.8
20260503192908 60 304 7.0 22.0 0.00 0.00 0.00 33 1011.7
20260503192140 58 234 8.0 18.0 0.00 0.00 0.00 34 1011.9
20260503191408 59 221 7.0 18.0 0.00 0.00 0.00 34 1011.9
20260503190907 59 309 7.0 15.0 0.00 0.00 0.00 33 1011.9
20260503190641 58 285 9.0 20.0 0.00 0.00 0.00 36 1011.9
20260503185909 57 263 10.0 20.0 0.00 0.00 0.00 35 1011.9
20260503185407 57 207 7.0 20.0 0.00 0.00 0.00 35 1011.9
20260503184908 56 254 7.0 16.0 0.00 0.00 0.00 36 1012.1
20260503184407 56 281 8.0 19.0 0.00 0.00 0.00 36 1012.1
20260503183908 57 259 9.0 19.0 0.00 0.00 0.00 35 1012.2
20260503183407 58 249 8.0 17.0 0.00 0.00 0.00 35 1012.1
20260503182909 58 288 7.0 18.0 0.00 0.00 0.00 35 1012.1
20260503182642 57 246 8.0 18.0 0.00 0.00 0.00 35 1012.1
20260503181910 56 288 8.0 17.0 0.00 0.00 0.00 35 1012.2
20260503181409 56 267 9.0 17.0 0.00 0.00 0.00 35 1012.2
20260503181134 57 277 8.0 16.0 0.00 0.00 0.00 34 1012.2
20260503180629 57 248 9.0 21.0 0.00 0.00 0.00 34 1012.2
20260503175851 56 282 9.0 21.0 0.00 0.00 0.00 35 1012.3
20260503175345 57 261 8.0 17.0 0.00 0.00 0.00 34 1012.2
20260503174846 57 306 9.0 17.0 0.00 0.00 0.00 35 1012.1
20260503174345 56 287 9.0 16.0 0.00 0.00 0.00 36 1012.2
20260503173845 56 279 8.0 16.0 0.00 0.00 0.00 37 1012.2
20260503173348 55 275 8.0 23.0 0.00 0.00 0.00 37 1012.3
20260503173344 56 282 9.0 16.0 0.00 0.00 0.00 37 1012.2
20260503172616 55 223 9.0 23.0 0.00 0.00 0.00 38 1012.3
20260503172116 56 299 9.0 19.0 0.00 0.00 0.00 37 1012.3
20260503171344 56 280 9.0 23.0 0.00 0.00 0.00 37 1012.3
20260503170844 55 246 8.0 23.0 0.00 0.00 0.00 39 1012.3
20260503170343 56 258 6.0 15.0 0.00 0.00 0.00 37 1012.2
20260503150837 56 297 5.0 13.0 0.00 0.00 0.00 40 1012.7
20260503150343 56 311 4.0 12.0 0.00 0.00 0.00 40 1012.6
20260503150337 56 238 4.0 13.0 0.00 0.00 0.00 41 1012.5
20260503140106 53 298 6.0 14.0 0.00 0.00 0.00 43 1012.5
20260503131331 51 246 5.0 20.0 0.00 0.00 0.00 48 1012.2
20260503130830 50 267 5.0 20.0 0.00 0.00 0.00 49 1012.2
20260503130336 50 281 5.0 15.0 0.00 0.00 0.00 51 1012.2
20260503130329 50 266 6.0 16.0 0.00 0.00 0.00 52 1012.1
20260503110721 46 277 4.0 11.0 0.00 0.00 0.00 58 1011.4
20260503110447 46 268 3.0 10.0 0.00 0.00 0.00 59 1011.3
20260503090459 47 262 3.0 8.0 0.00 0.00 0.00 58 1009.5
20260503080853 49 257 1.0 6.0 0.00 0.00 0.00 54 1009.2
20260503080614 49 250 2.0 9.0 0.00 0.00 0.00 53 1009.1
20260503080449 49 278 2.0 9.0 0.00 0.00 0.00 54 1009.2
20260503072803 49 317 2.0 8.0 0.00 0.00 0.00 55 1009.2
20260503072258 49 296 3.0 10.0 0.00 0.00 0.00 54 1009.2
20260503071752 49 263 3.0 10.0 0.00 0.00 0.00 54 1009.3
20260503071247 50 277 3.0 9.0 0.00 0.00 0.00 54 1009.3
20260503070741 50 286 4.0 11.0 0.00 0.00 0.00 54 1009.3
20260503070234 50 244 4.0 11.0 0.00 0.00 0.00 54 1009.4
20260503060135 51 273 5.0 9.0 0.00 0.00 0.00 54 1009.3
20260503054635 51 279 3.0 10.0 0.00 0.00 0.00 52 1009.4
20260503054133 51 291 4.0 8.0 0.00 0.00 0.00 52 1009.5
20260503053633 51 276 4.0 8.0 0.00 0.00 0.00 52 1009.6
20260503053531 51 276 3.0 9.0 0.00 0.00 0.00 53 1009.5
20260503053422 51 250 3.0 9.0 0.00 0.00 0.00 53 1009.5
20260503052132 51 270 3.0 8.0 0.00 0.00 0.00 53 1009.8
20260503051631 51 280 3.0 9.0 0.00 0.00 0.00 53 1009.6
20260503051132 51 277 4.0 9.0 0.00 0.00 0.00 54 1009.5
20260503050901 51 321 4.0 9.0 0.00 0.00 0.00 53 1009.6
20260503050128 51 281 3.0 9.0 0.00 0.00 0.00 53 1009.5
20260503045630 51 269 4.0 9.0 0.00 0.00 0.00 54 1009.5
20260503045128 51 279 4.0 10.0 0.00 0.00 0.00 54 1009.9
20260503044628 51 281 4.0 10.0 0.00 0.00 0.00 55 1010.0
20260503044127 51 283 3.0 11.0 0.00 0.00 0.00 54 1010.0
20260503043628 51 288 3.0 11.0 0.00 0.00 0.00 54 1010.0
20260503043128 52 261 3.0 10.0 0.00 0.00 0.00 54 1009.8
20260503042627 52 255 4.0 10.0 0.00 0.00 0.00 54 1010.0
20260503042129 52 275 3.0 10.0 0.00 0.00 0.00 54 1010.1
20260503041628 52 281 3.0 9.0 0.00 0.00 0.00 55 1010.1
20260503041359 52 284 4.0 9.0 0.00 0.00 0.00 55 1010.1
20260503040628 52 290 4.0 9.0 0.00 0.00 0.00 56 1010.3
20260503040127 52 295 4.0 9.0 0.00 0.00 0.00 55 1010.4
20260503035628 52 275 4.0 9.0 0.00 0.00 0.00 54 1010.3
20260503035129 52 269 3.0 9.0 0.00 0.00 0.00 55 1010.2
20260503034628 52 270 4.0 10.0 0.00 0.00 0.00 56 1010.3
20260503034127 52 300 4.0 10.0 0.00 0.00 0.00 57 1010.2
20260503033627 52 279 4.0 9.0 0.00 0.00 0.00 59 1010.0
20260503033128 52 259 4.0 11.0 0.00 0.00 0.00 60 1010.0